Terminal Aerodrome Forecast
Issued by NWS Louisville, KY

Home | Current Version | Previous Version | Text Only | Print | Product List | Glossary On
Versions: 1 2 3 4 5 6 7 8 9 10 11 12 13 14 15 16 17 18 19 20 21 22
000
FTUS43 KLMK 160500
TAFSDF
TAF
KSDF 160520Z 1606/1712 22005KT P6SM VCSH SCT040 BKN060
     FM160700 34006KT 6SM BR OVC012
     FM161400 36007KT P6SM OVC020
     FM162100 01005KT P6SM SCT035=

USA.gov is the U.S. government's official web portal to all federal, state and local government web resources and services.